[[{"header":{"parameterUnit":"m.s-1","parameterCategory":1,"la1":30.2991,"la2":30.254,"lo1":-89.0895,"lo2":-89.0444,"dy":0.0017,"dx":0.0017,"nx":28,"ny":28,"refTime":"2025-08-22T03:00:00:Z","depth":0,"parameterNumber":2,"parameterNumberName":"U-component_of_WINDS"},"data":[0,0,0,0,0,0,0,0,0,0,0,0,0,0,0,0,0,0,0,0,0,0,0,0,0,0,0,0,0,0,0,0,0,0,0,0,0,0,0,0,0,0,0,0,0,0,0,0,0,0,0,0,0,0,0,0,0,0,0.1138,0.1138,0,0.118,0.118,0.1181,0.118,0.1179,0.1179,0.1178,0.1223,0.1225,0.1227,0,0,0,0,0,0,0,0,0,0,0,0,0,0.106,0.1062,0.1138,0.1138,0.1139,0.118,0.118,0.1181,0.118,0.1179,0.1179,0.1178,0.1223,0.1225,0.1227,0,0,0,0,0,0,0,0,0,0,0,0,0,0.1097,0.1062,0.1138,0.1143,0.1144,0.118,0.118,0.1181,0.118,0.1179,0.1179,0.1178,0.1222,0.1225,0.1227,0.126,0,0,0.1235,0.1236,0,0,0,0,0,0,0,0,0.1095,0.11,0.1142,0.1143,0.1144,0.1174,0.1169,0.1208,0.118,0.1167,0.1178,0.1177,0.1208,0.1211,0.1221,0.1262,0.1264,0.1235,0.1237,0.1238,0.1239,0,0,0,0,0,0,0,0.1093,0.1098,0.1155,0.1143,0.1144,0.1145,0.1149,0.1177,0.1192,0.1168,0.1168,0.1173,0.1208,0.1219,0.1222,0.1265,0.1235,0.1238,0.1239,0.124,0.1336,0.1337,0,0,0,0,0,0,0.1089,0.1096,0.1153,0.1156,0.1117,0.1147,0.1152,0.1165,0.1191,0.1194,0.1173,0.1173,0.1215,0.1219,0.1224,0.1264,0.1238,0.1241,0.1242,0.1335,0.1336,0.1337,0,0,0,0,0,0,0.1087,0.1094,0.1151,0.1126,0.1133,0.1149,0.1164,0.1166,0.1177,0.1195,0.1198,0.1181,0.1214,0.122,0.1251,0.1266,0.1242,0.1244,0.1334,0.1335,0.1337,0.1345,0,0,0,0,0,0,0.1085,0.1093,0.1105,0.1126,0.1135,0.1177,0.1165,0.1168,0.1181,0.118,0.1204,0.1207,0.1214,0.1247,0.1254,0.1269,0.1246,0.1333,0.1334,0.1336,0.1344,0.1347,0.1349,0,0,0,0,0,0.1082,0.1106,0.1106,0.1112,0.115,0.1178,0.1183,0.119,0.1182,0.1195,0.1207,0.1206,0.1263,0.125,0.1258,0.1274,0.1332,0.1334,0.1336,0.1342,0.1346,0.1349,0,0,0,0,0,0,0.1087,0.1109,0.1109,0.114,0.1157,0.1178,0.1194,0.1194,0.1214,0.1213,0.1222,0.1227,0.1258,0.1269,0.1255,0.1308,0.1297,0.13,0.1299,0.1303,0.1305,0.1302,0.1248,0,0,0,0,0,0.1091,0.1112,0.113,0.1157,0.1165,0.1178,0.1191,0.1195,0.1213,0.122,0.1235,0.1253,0.1275,0.129,0.1311,0.1346,0.1351,0.136,0.1363,0.1366,0.1369,0.1388,0.1392,0.1344,0.1344,0.1344,0,0,0.1101,0.1116,0.1128,0.1158,0.1171,0.1193,0.1184,0.1207,0.1223,0.1224,0.1254,0.1265,0.1286,0.1319,0.1334,0.1329,0.1383,0.1368,0.137,0.1372,0.1391,0.1395,0.1399,0.1346,0.1346,0.1345,0,0,0.113,0.1143,0.1167,0.118,0.1201,0.121,0.1215,0.1236,0.1243,0.1273,0.1275,0.1295,0.1333,0.1348,0.136,0.1396,0.1396,0.1403,0.1418,0.1437,0.1441,0.1444,0.1457,0.1461,0.1406,0.1406,0.1406,0,0.114,0.1172,0.1179,0.1202,0.1215,0.1216,0.1241,0.1254,0.1281,0.129,0.1284,0.1332,0.1347,0.1383,0.1392,0.1402,0.1409,0.14,0.1439,0.1443,0.1446,0.1458,0.1463,0.1407,0.1407,0.1407,0.1407,0,0.1183,0.1205,0.1222,0.1246,0.1262,0.1285,0.1297,0.1312,0.1315,0.1325,0.1356,0.1373,0.1398,0.1407,0.1411,0.1445,0.1441,0.1437,0.1426,0.1451,0.1463,0.1468,0.1408,0.1408,0.1407,0.1407,0,0,0.1215,0.1244,0.125,0.1262,0.1285,0.1303,0.1327,0.1351,0.1363,0.1382,0.1403,0.1435,0.1432,0.1447,0.1452,0.1469,0.1496,0.1463,0.1464,0.1468,0.1534,0.1537,0.1542,0.1496,0.1497,0.1498,0.1533,0,0.1246,0.1288,0.1295,0.1332,0.1353,0.1355,0.1376,0.1393,0.1403,0.1423,0.1435,0.1457,0.1451,0.146,0.1476,0.1489,0.1509,0.1487,0.1516,0.1517,0.151,0.1548,0.1551,0.1582,0.1537,0.1538,0.1539,0,0.1288,0.1307,0.1346,0.1366,0.1375,0.1394,0.1417,0.1436,0.1456,0.1462,0.1478,0.1482,0.1508,0.1497,0.1533,0.1517,0.153,0.1539,0.154,0.1543,0.1529,0.1552,0.1593,0.1597,0.1546,0.1545,0.1545,0,0.1307,0.1343,0.1371,0.1381,0.1406,0.1419,0.143,0.1449,0.1463,0.1484,0.1493,0.1517,0.1529,0.1548,0.1559,0.1549,0.1594,0.1584,0.1601,0.16,0.161,0.1609,0.1653,0.1618,0.1618,0.1618,0.1618,0,0.1341,0.1364,0.138,0.1397,0.1423,0.1433,0.1459,0.147,0.1487,0.1507,0.1511,0.153,0.1543,0.1564,0.1573,0.1602,0.1608,0.1614,0.1616,0.1613,0.1612,0.1621,0.1619,0.162,0.1619,0.1619,0.1619,0,0.1367,0.1378,0.1408,0.1429,0.1435,0.1454,0.1473,0.149,0.15,0.1526,0.1532,0.1548,0.1573,0.1586,0.1617,0.1623,0.1656,0.1657,0.1649,0.1649,0.1666,0.1664,0.1717,0.1724,0.1685,0.1685,0.1686,0,0.1387,0.1405,0.1428,0.1441,0.1453,0.1474,0.1489,0.1499,0.1514,0.1538,0.1553,0.1578,0.1598,0.1638,0.1653,0.1677,0.1679,0.1696,0.1682,0.1679,0.1679,0.1677,0.1679,0.1698,0.1698,0.1698,0.1699,0,0.1422,0.1427,0.1447,0.1469,0.1486,0.1504,0.1522,0.1533,0.1547,0.1564,0.1589,0.1605,0.1636,0.1661,0.1687,0.1699,0.1702,0.1703,0.1708,0.1705,0.17,0.1703,0.1655,0.1701,0.1701,0.1701,0.1701,0.1701,0.1446,0.1462,0.1481,0.1503,0.1518,0.1535,0.1552,0.1564,0.1585,0.1611,0.1617,0.1643,0.1664,0.1698,0.1712,0.1733,0.173,0.1737,0.1739,0.1741,0.1741,0.1697,0.1738,0.1738,0.1738,0.1738,0.1738,0,0.1481,0.1493,0.1514,0.1538,0.1556,0.1557,0.1577,0.1592,0.1615,0.1634,0.1654,0.1683,0.1708,0.1725,0.175,0.1764,0.1766,0.1771,0.177,0.1773,0.1743,0.1736,0.1769,0.1769,0.1769,0.1769,0.1769,0.1769,0.1501,0.1528,0.1535,0.1571,0.1583,0.1609,0.1621,0.1637,0.1651,0.1684,0.1704,0.1715,0.1733,0.176,0.1783,0.1787,0.1796,0.1801,0.1806,0.1778,0.1775,0.1771,0.1765,0.1803,0.1803,0.1833,0.1833,0.1833]},{"header":{"parameterUnit":"m.s-1","parameterCategory":1,"la1":30.2991,"la2":30.254,"lo1":-89.0895,"lo2":-89.0444,"dy":0.0017,"dx":0.0017,"nx":28,"ny":28,"refTime":"2025-08-22T03:00:00:Z","depth":0,"parameterNumber":3,"parameterNumberName":"V-component_of_WINDS"},"data":[0,0,0,0,0,0,0,0,0,0,0,0,0,0,0,0,0,0,0,0,0,0,0,0,0,0,0,0,0,0,0,0,0,0,0,0,0,0,0,0,0,0,0,0,0,0,0,0,0,0,0,0,0,0,0,0,0,0,-0.3367,-0.3367,0,-0.3397,-0.3398,-0.3398,-0.3392,-0.3391,-0.3391,-0.339,-0.3424,-0.3426,-0.3427,0,0,0,0,0,0,0,0,0,0,0,0,0,-0.3308,-0.3309,-0.3367,-0.3368,-0.3368,-0.3397,-0.3398,-0.3398,-0.3392,-0.3391,-0.3391,-0.339,-0.3424,-0.3426,-0.3427,0,0,0,0,0,0,0,0,0,0,0,0,0,-0.3336,-0.3309,-0.3367,-0.3368,-0.3369,-0.3397,-0.3398,-0.3398,-0.3392,-0.3391,-0.3391,-0.339,-0.3423,-0.3425,-0.3428,-0.3458,0,0,-0.3434,-0.3435,0,0,0,0,0,0,0,0,-0.3334,-0.3338,-0.3368,-0.3368,-0.3369,-0.339,-0.3389,-0.3418,-0.3392,-0.3383,-0.339,-0.3389,-0.3414,-0.3417,-0.3424,-0.3459,-0.3461,-0.3434,-0.3436,-0.3437,-0.3437,0,0,0,0,0,0,0,-0.3332,-0.3336,-0.3379,-0.3368,-0.3369,-0.3369,-0.3372,-0.3395,-0.3403,-0.3384,-0.3384,-0.3387,-0.3414,-0.3422,-0.3425,-0.3461,-0.3434,-0.3436,-0.3438,-0.3438,-0.3526,-0.3527,0,0,0,0,0,0,-0.3329,-0.3335,-0.3378,-0.338,-0.3349,-0.337,-0.3374,-0.3384,-0.3403,-0.3405,-0.3388,-0.3387,-0.3419,-0.3423,-0.3426,-0.3465,-0.3437,-0.3439,-0.344,-0.3525,-0.3526,-0.3527,0,0,0,0,0,0,-0.3328,-0.3333,-0.3377,-0.3357,-0.3363,-0.3372,-0.3384,-0.3385,-0.3393,-0.3406,-0.3407,-0.3395,-0.3419,-0.3423,-0.345,-0.3466,-0.344,-0.3442,-0.3523,-0.3525,-0.3526,-0.3542,0,0,0,0,0,0,-0.3326,-0.3333,-0.3343,-0.3358,-0.3364,-0.3399,-0.3385,-0.3386,-0.3397,-0.3396,-0.3412,-0.3415,-0.3418,-0.3447,-0.3453,-0.3469,-0.3443,-0.3522,-0.3524,-0.3526,-0.354,-0.3543,-0.3547,0,0,0,0,0,-0.3324,-0.3346,-0.3344,-0.3349,-0.3377,-0.34,-0.3404,-0.3407,-0.3398,-0.341,-0.3418,-0.3414,-0.3463,-0.345,-0.3456,-0.3473,-0.3521,-0.3524,-0.3526,-0.3538,-0.3543,-0.3546,0,0,0,0,0,0,-0.3334,-0.3348,-0.3346,-0.3373,-0.3385,-0.3399,-0.3414,-0.3411,-0.3428,-0.3426,-0.343,-0.3434,-0.3462,-0.347,-0.3455,-0.3505,-0.3491,-0.3495,-0.3499,-0.3503,-0.3506,-0.3505,-0.3445,0,0,0,0,0,-0.3339,-0.3356,-0.3368,-0.3391,-0.3397,-0.3404,-0.3414,-0.3416,-0.3429,-0.3435,-0.3445,-0.3459,-0.3478,-0.3491,-0.3508,-0.354,-0.3545,-0.3555,-0.3558,-0.3561,-0.3565,-0.3585,-0.359,-0.3535,-0.3534,-0.3534,0,0,-0.3351,-0.336,-0.3371,-0.3393,-0.3403,-0.3422,-0.3409,-0.3428,-0.3443,-0.3438,-0.3465,-0.3473,-0.3489,-0.3519,-0.3533,-0.3527,-0.3581,-0.3564,-0.3566,-0.3569,-0.3588,-0.3593,-0.3598,-0.3536,-0.3536,-0.3536,0,0,-0.3382,-0.3389,-0.3411,-0.3421,-0.3436,-0.3441,-0.3446,-0.346,-0.3465,-0.3492,-0.3489,-0.3507,-0.3539,-0.3551,-0.3562,-0.3599,-0.3597,-0.3604,-0.3623,-0.3643,-0.3647,-0.3651,-0.3667,-0.3672,-0.3608,-0.3608,-0.3608,0,-0.3394,-0.3421,-0.3422,-0.3443,-0.3454,-0.3449,-0.3472,-0.3482,-0.3503,-0.3511,-0.3503,-0.3544,-0.3555,-0.3589,-0.3598,-0.3606,-0.3614,-0.3603,-0.3646,-0.365,-0.3654,-0.3669,-0.3675,-0.3609,-0.3609,-0.3608,-0.3608,0,-0.3437,-0.3456,-0.3471,-0.3491,-0.3503,-0.3525,-0.3531,-0.3544,-0.3544,-0.355,-0.3579,-0.3591,-0.3613,-0.362,-0.3621,-0.3656,-0.3652,-0.3645,-0.3632,-0.366,-0.3675,-0.368,-0.361,-0.361,-0.3609,-0.3609,0,0,-0.3475,-0.3496,-0.3502,-0.3512,-0.3528,-0.3544,-0.3566,-0.3586,-0.3598,-0.3612,-0.3633,-0.366,-0.3655,-0.3667,-0.3669,-0.3686,-0.3717,-0.3677,-0.3678,-0.3686,-0.376,-0.3767,-0.3773,-0.3715,-0.3716,-0.3717,-0.3759,0,-0.351,-0.3548,-0.355,-0.3585,-0.3604,-0.3601,-0.3621,-0.3634,-0.3641,-0.3659,-0.3666,-0.3687,-0.3676,-0.3684,-0.37,-0.371,-0.3733,-0.3707,-0.3737,-0.3738,-0.3735,-0.378,-0.3787,-0.3827,-0.3765,-0.3766,-0.3766,0,-0.3554,-0.357,-0.3608,-0.3624,-0.3632,-0.3649,-0.3669,-0.3685,-0.3701,-0.3705,-0.3719,-0.3719,-0.3744,-0.3729,-0.3765,-0.3747,-0.3759,-0.3766,-0.3768,-0.3773,-0.3756,-0.3789,-0.3839,-0.3846,-0.3775,-0.3774,-0.3774,0,-0.3582,-0.3613,-0.3639,-0.3648,-0.3666,-0.3679,-0.3688,-0.3702,-0.3715,-0.3733,-0.3742,-0.3762,-0.3774,-0.3791,-0.3797,-0.3785,-0.3834,-0.3818,-0.384,-0.384,-0.3852,-0.3852,-0.3907,-0.3856,-0.3856,-0.3856,-0.3855,0,-0.3621,-0.3645,-0.3652,-0.3669,-0.3696,-0.3699,-0.3726,-0.3734,-0.3748,-0.3768,-0.3765,-0.3784,-0.379,-0.3811,-0.3816,-0.3846,-0.3851,-0.3857,-0.3858,-0.3858,-0.3858,-0.3868,-0.3867,-0.3857,-0.3857,-0.3857,-0.3856,0,-0.3658,-0.3663,-0.3693,-0.3708,-0.3712,-0.3732,-0.3746,-0.3763,-0.3769,-0.3795,-0.3801,-0.3811,-0.3835,-0.3843,-0.3872,-0.3875,-0.3912,-0.391,-0.3907,-0.3908,-0.393,-0.3929,-0.3996,-0.4007,-0.3946,-0.3946,-0.3947,0,-0.3683,-0.3702,-0.3719,-0.3732,-0.3741,-0.3761,-0.3774,-0.3778,-0.3792,-0.3813,-0.3828,-0.3852,-0.3871,-0.391,-0.3921,-0.3944,-0.3944,-0.3966,-0.3948,-0.3948,-0.3948,-0.3948,-0.3952,-0.3971,-0.3971,-0.3972,-0.3972,0,-0.373,-0.3732,-0.375,-0.3771,-0.3786,-0.3802,-0.3818,-0.3829,-0.3835,-0.3852,-0.3876,-0.3891,-0.3921,-0.3946,-0.3969,-0.398,-0.3979,-0.3978,-0.3985,-0.3986,-0.3985,-0.3989,-0.3919,-0.3977,-0.3976,-0.3976,-0.3976,-0.3975,-0.3763,-0.378,-0.3796,-0.3817,-0.3829,-0.3844,-0.3862,-0.3871,-0.3891,-0.3915,-0.3916,-0.3944,-0.3961,-0.3992,-0.4004,-0.4027,-0.4021,-0.403,-0.4033,-0.4036,-0.4039,-0.3979,-0.4031,-0.4031,-0.4031,-0.4031,-0.403,0,-0.3812,-0.3822,-0.3841,-0.3864,-0.3881,-0.3876,-0.3894,-0.3909,-0.3933,-0.3949,-0.3968,-0.3998,-0.4022,-0.4035,-0.406,-0.4076,-0.4076,-0.4082,-0.4083,-0.4086,-0.4042,-0.4035,-0.4082,-0.4082,-0.4082,-0.4082,-0.4082,-0.4082,-0.384,-0.3869,-0.3873,-0.391,-0.3919,-0.3946,-0.3957,-0.3971,-0.3984,-0.4017,-0.4037,-0.4045,-0.4061,-0.4087,-0.411,-0.4113,-0.4124,-0.4131,-0.4135,-0.4094,-0.4088,-0.4084,-0.4077,-0.4133,-0.4133,-0.4178,-0.4178,-0.4178]}]]